[[{"header":{"parameterUnit":"m.s-1","parameterCategory":1,"la1":30.2991,"la2":30.254,"lo1":-89.0895,"lo2":-89.0444,"dy":0.0017,"dx":0.0017,"nx":28,"ny":28,"refTime":"2023-09-04T03:00:00:Z","depth":0,"parameterNumber":2,"parameterNumberName":"U-component_of_WINDS"},"data":[0,0,0,0,0,0,0,0,0,0,0,0,0,0,0,0,0,0,0,0,0,0,0,0,0,0,0,0,0,0,0,0,0,0,0,0,0,0,0,0,0,0,0,0,0,0,0,0,0,0,0,0,0,0,0,0,0,0,-7.1117,-7.1118,0,-7.1239,-7.124,-7.1242,-7.1186,-7.1183,-7.118,-7.1177,-7.1297,-7.1303,-7.1308,0,0,0,0,0,0,0,0,0,0,0,0,0,-7.0832,-7.0838,-7.1117,-7.1119,-7.112,-7.1239,-7.124,-7.1242,-7.1187,-7.1183,-7.118,-7.1176,-7.1295,-7.1302,-7.1309,0,0,0,0,0,0,0,0,0,0,0,0,0,-7.0955,-7.0839,-7.1117,-7.1107,-7.1107,-7.1238,-7.124,-7.1242,-7.1188,-7.1183,-7.1179,-7.1174,-7.1292,-7.1301,-7.131,-7.1456,0,0,-7.1337,-7.1341,0,0,0,0,0,0,0,0,-7.0948,-7.0965,-7.1107,-7.1108,-7.1109,-7.1193,-7.1183,-7.1314,-7.1189,-7.1157,-7.1177,-7.1172,-7.1265,-7.1276,-7.1309,-7.1461,-7.1467,-7.1338,-7.1344,-7.1347,-7.135,0,0,0,0,0,0,0,-7.094,-7.096,-7.1165,-7.1109,-7.111,-7.1095,-7.1107,-7.1208,-7.1235,-7.1159,-7.1156,-7.1171,-7.1265,-7.13,-7.1311,-7.1468,-7.1338,-7.1346,-7.1351,-7.1355,-7.1744,-7.1749,0,0,0,0,0,0,-7.0932,-7.0953,-7.1161,-7.1169,-7.1016,-7.1104,-7.1118,-7.117,-7.1234,-7.1239,-7.1175,-7.1168,-7.1287,-7.1301,-7.1315,-7.1487,-7.1347,-7.1356,-7.1361,-7.1739,-7.1745,-7.1751,0,0,0,0,0,0,-7.0926,-7.0951,-7.1156,-7.106,-7.1085,-7.1114,-7.1173,-7.1175,-7.121,-7.1246,-7.1249,-7.1206,-7.1284,-7.1303,-7.1421,-7.1491,-7.136,-7.1368,-7.1734,-7.1741,-7.1748,-7.1835,0,0,0,0,0,0,-7.0918,-7.0949,-7.1006,-7.1062,-7.109,-7.1262,-7.1177,-7.1181,-7.1227,-7.1219,-7.1276,-7.1281,-7.1282,-7.1408,-7.143,-7.1501,-7.1375,-7.1727,-7.1737,-7.1746,-7.1826,-7.1844,-7.186,0,0,0,0,0,-7.0908,-7.1025,-7.1009,-7.1034,-7.1162,-7.1266,-7.1282,-7.1282,-7.1233,-7.1289,-7.1311,-7.1279,-7.1481,-7.1421,-7.1445,-7.1519,-7.1723,-7.1734,-7.1745,-7.1818,-7.184,-7.186,0,0,0,0,0,0,-7.0974,-7.1032,-7.1015,-7.1154,-7.1206,-7.1256,-7.1327,-7.1306,-7.1372,-7.1362,-7.1358,-7.1371,-7.1493,-7.1519,-7.1451,-7.1663,-7.1594,-7.1611,-7.1641,-7.1663,-7.168,-7.1668,-7.1383,0,0,0,0,0,-7.1005,-7.1086,-7.1132,-7.1249,-7.1277,-7.1298,-7.1343,-7.1339,-7.1392,-7.1413,-7.1444,-7.1495,-7.1569,-7.1618,-7.1689,-7.1831,-7.1841,-7.1894,-7.1912,-7.1926,-7.1938,-7.2012,-7.2035,-7.1787,-7.1787,-7.1787,0,0,-7.1069,-7.1111,-7.1162,-7.1264,-7.1303,-7.1385,-7.1316,-7.1406,-7.1466,-7.1426,-7.1539,-7.1564,-7.1621,-7.1751,-7.181,-7.1776,-7.201,-7.194,-7.1951,-7.1956,-7.2026,-7.2049,-7.207,-7.1795,-7.1794,-7.1792,0,0,-7.1226,-7.1268,-7.1369,-7.1411,-7.1473,-7.1486,-7.1511,-7.1566,-7.1581,-7.1696,-7.1667,-7.1738,-7.1868,-7.1908,-7.1946,-7.2121,-7.2093,-7.2145,-7.2232,-7.2305,-7.2324,-7.2341,-7.24,-7.2421,-7.2158,-7.2159,-7.2159,0,-7.1296,-7.142,-7.1423,-7.1515,-7.156,-7.1531,-7.1632,-7.1672,-7.1753,-7.1784,-7.1746,-7.1907,-7.1944,-7.2081,-7.2124,-7.2158,-7.2183,-7.2135,-7.2322,-7.2339,-7.2355,-7.241,-7.2433,-7.2164,-7.2164,-7.2163,-7.2163,0,-7.1502,-7.1589,-7.1663,-7.1743,-7.1797,-7.1894,-7.1909,-7.1963,-7.1956,-7.1973,-7.2089,-7.2133,-7.221,-7.2244,-7.2237,-7.2381,-7.2358,-7.2322,-7.2251,-7.2384,-7.2436,-7.2458,-7.2172,-7.217,-7.2169,-7.2167,0,0,-7.1699,-7.1782,-7.1809,-7.1844,-7.1912,-7.1978,-7.2073,-7.2151,-7.2196,-7.2254,-7.2331,-7.2443,-7.2409,-7.2452,-7.245,-7.2515,-7.2646,-7.247,-7.2471,-7.2497,-7.2803,-7.2826,-7.2851,-7.2631,-7.2635,-7.2638,-7.2797,0,-7.1858,-7.2025,-7.2031,-7.2182,-7.226,-7.2235,-7.2318,-7.2367,-7.2386,-7.2454,-7.2476,-7.2553,-7.2506,-7.2531,-7.2594,-7.2617,-7.2707,-7.2606,-7.2698,-7.2701,-7.2679,-7.2879,-7.2904,-7.3051,-7.2818,-7.2821,-7.2824,0,-7.2063,-7.2129,-7.2289,-7.2344,-7.2377,-7.2451,-7.2523,-7.259,-7.2645,-7.2655,-7.2704,-7.2693,-7.2788,-7.2719,-7.2848,-7.278,-7.2819,-7.2836,-7.2842,-7.2845,-7.2766,-7.2883,-7.3099,-7.3119,-7.2857,-7.2854,-7.2852,0,-7.2185,-7.2315,-7.2426,-7.2458,-7.2527,-7.2579,-7.261,-7.2661,-7.2708,-7.2771,-7.28,-7.2874,-7.2912,-7.2969,-7.2977,-7.2927,-7.3105,-7.3038,-7.3112,-7.3112,-7.3146,-7.3143,-7.3365,-7.3181,-7.318,-7.318,-7.318,0,-7.2358,-7.2456,-7.2481,-7.2549,-7.2657,-7.2665,-7.2771,-7.2798,-7.2844,-7.2915,-7.29,-7.2966,-7.2976,-7.3045,-7.3053,-7.3156,-7.3175,-7.3183,-7.3183,-7.3182,-7.318,-7.3202,-7.319,-7.3186,-7.3185,-7.3183,-7.3182,0,-7.251,-7.2532,-7.2651,-7.2708,-7.2724,-7.2801,-7.2848,-7.2913,-7.2932,-7.3023,-7.3044,-7.3074,-7.3154,-7.317,-7.3265,-7.327,-7.3392,-7.3385,-7.3373,-7.3371,-7.3443,-7.3434,-7.3683,-7.3715,-7.3514,-7.3516,-7.3518,0,-7.2616,-7.269,-7.2756,-7.2803,-7.2837,-7.2914,-7.2962,-7.2973,-7.3023,-7.3092,-7.3147,-7.3227,-7.329,-7.342,-7.3448,-7.3521,-7.3511,-7.3594,-7.3521,-7.3517,-7.3507,-7.35,-7.3506,-7.3606,-7.3608,-7.361,-7.3611,0,-7.28,-7.2808,-7.2878,-7.2953,-7.3011,-7.3071,-7.3126,-7.3166,-7.3184,-7.3241,-7.3324,-7.3374,-7.3472,-7.3549,-7.3622,-7.3652,-7.3633,-7.3635,-7.3655,-7.3651,-7.364,-7.3642,-7.3406,-7.3627,-7.3626,-7.3625,-7.3624,-7.3623,-7.2929,-7.2993,-7.3049,-7.3128,-7.3172,-7.3225,-7.3288,-7.3316,-7.3386,-7.3467,-7.347,-7.356,-7.3613,-7.3709,-7.3744,-7.3813,-7.3786,-7.3817,-7.3824,-7.383,-7.3834,-7.3634,-7.3827,-7.3827,-7.3826,-7.3826,-7.3825,0,-7.3108,-7.3144,-7.3217,-7.3296,-7.3358,-7.334,-7.3402,-7.3453,-7.3533,-7.3586,-7.3649,-7.3744,-7.382,-7.3856,-7.3931,-7.3979,-7.3972,-7.3998,-7.3991,-7.3998,-7.3856,-7.3828,-7.4002,-7.4002,-7.4002,-7.4002,-7.4002,-7.4002,-7.3208,-7.3315,-7.333,-7.3458,-7.3493,-7.3581,-7.3618,-7.3666,-7.3707,-7.3814,-7.3878,-7.3903,-7.3948,-7.4026,-7.4094,-7.4103,-7.4129,-7.4157,-7.4161,-7.4026,-7.4008,-7.3991,-7.3965,-7.4164,-7.4164,-7.4297,-7.4298,-7.4299]},{"header":{"parameterUnit":"m.s-1","parameterCategory":1,"la1":30.2991,"la2":30.254,"lo1":-89.0895,"lo2":-89.0444,"dy":0.0017,"dx":0.0017,"nx":28,"ny":28,"refTime":"2023-09-04T03:00:00:Z","depth":0,"parameterNumber":3,"parameterNumberName":"V-component_of_WINDS"},"data":[0,0,0,0,0,0,0,0,0,0,0,0,0,0,0,0,0,0,0,0,0,0,0,0,0,0,0,0,0,0,0,0,0,0,0,0,0,0,0,0,0,0,0,0,0,0,0,0,0,0,0,0,0,0,0,0,0,0,1.5346,1.5346,0,1.5369,1.537,1.537,1.5378,1.5378,1.5378,1.5378,1.5401,1.5402,1.5403,0,0,0,0,0,0,0,0,0,0,0,0,0,1.5309,1.531,1.5346,1.5346,1.5346,1.5369,1.537,1.537,1.5378,1.5378,1.5378,1.5378,1.5401,1.5402,1.5403,0,0,0,0,0,0,0,0,0,0,0,0,0,1.5328,1.531,1.5345,1.5353,1.5354,1.5369,1.537,1.537,1.5378,1.5378,1.5378,1.5378,1.5401,1.5402,1.5403,1.5412,0,0,1.5406,1.5407,0,0,0,0,0,0,0,0,1.5327,1.5329,1.5352,1.5353,1.5354,1.5371,1.5365,1.5384,1.5378,1.5369,1.5378,1.5378,1.5391,1.5393,1.5398,1.5413,1.5414,1.5406,1.5407,1.5407,1.5408,0,0,0,0,0,0,0,1.5326,1.5328,1.5355,1.5352,1.5353,1.5356,1.5359,1.5369,1.5381,1.537,1.5371,1.5373,1.5392,1.5397,1.5398,1.5414,1.5406,1.5407,1.5408,1.5408,1.5443,1.5443,0,0,0,0,0,0,1.5323,1.5327,1.5354,1.5356,1.534,1.5357,1.536,1.5365,1.538,1.5383,1.5373,1.5374,1.5395,1.5397,1.5399,1.5414,1.5407,1.5408,1.5409,1.5443,1.5443,1.5444,0,0,0,0,0,0,1.5322,1.5325,1.5353,1.5342,1.5346,1.5358,1.5364,1.5366,1.5371,1.5383,1.5385,1.5376,1.5395,1.5398,1.541,1.5414,1.5409,1.541,1.5443,1.5443,1.5443,1.544,0,0,0,0,0,0,1.5321,1.5325,1.5328,1.5342,1.5346,1.5363,1.5364,1.5367,1.5373,1.5373,1.5386,1.5388,1.5395,1.5408,1.5411,1.5416,1.5411,1.5442,1.5443,1.5443,1.544,1.5441,1.5441,0,0,0,0,0,1.532,1.5325,1.5328,1.5331,1.535,1.5363,1.5365,1.5373,1.5373,1.5377,1.5385,1.5388,1.5414,1.5409,1.5412,1.5418,1.5442,1.5443,1.5443,1.544,1.544,1.5441,0,0,0,0,0,0,1.5309,1.5326,1.533,1.5339,1.535,1.5364,1.5368,1.5373,1.5383,1.5383,1.5392,1.5395,1.5407,1.5414,1.5409,1.543,1.5428,1.5429,1.5425,1.5425,1.5426,1.5424,1.5411,0,0,0,0,0,1.5308,1.5317,1.5332,1.5339,1.5344,1.5356,1.5361,1.5367,1.5378,1.5382,1.5391,1.5402,1.5413,1.5419,1.543,1.5442,1.5446,1.5447,1.5448,1.5448,1.5449,1.5459,1.5461,1.5446,1.5446,1.5446,0,0,1.5305,1.5316,1.532,1.5337,1.5345,1.5356,1.5359,1.5368,1.5376,1.5383,1.5396,1.5404,1.5417,1.543,1.5436,1.5435,1.5455,1.5449,1.5449,1.545,1.546,1.5462,1.5463,1.5446,1.5446,1.5446,0,0,1.5305,1.5314,1.5322,1.5332,1.5346,1.5354,1.5357,1.5372,1.5377,1.5391,1.5397,1.5408,1.5425,1.5435,1.5442,1.5453,1.5456,1.5456,1.5458,1.5468,1.5469,1.547,1.5476,1.5478,1.5457,1.5457,1.5457,0,1.53,1.5315,1.5325,1.5336,1.5344,1.5354,1.5363,1.5372,1.5388,1.5394,1.5394,1.542,1.5428,1.5446,1.5449,1.5454,1.5458,1.5453,1.5468,1.547,1.5471,1.5476,1.5478,1.5457,1.5457,1.5457,1.5457,0,1.5309,1.532,1.5325,1.5343,1.5352,1.5362,1.5375,1.5383,1.539,1.5399,1.5415,1.5426,1.5441,1.5446,1.5451,1.5465,1.5465,1.5466,1.5465,1.5472,1.5477,1.5479,1.5457,1.5457,1.5457,1.5457,0,0,1.5299,1.5327,1.5328,1.5338,1.5357,1.5366,1.5378,1.5394,1.5402,1.5414,1.5426,1.5443,1.5446,1.5454,1.5462,1.547,1.5481,1.5471,1.5472,1.5474,1.5501,1.55,1.5502,1.5484,1.5485,1.5485,1.55,0,1.5303,1.5325,1.5337,1.5354,1.5366,1.5378,1.5389,1.5402,1.5412,1.5425,1.5436,1.5449,1.5451,1.5457,1.5466,1.5478,1.5487,1.5477,1.5496,1.5497,1.5493,1.5504,1.5502,1.5515,1.5502,1.5502,1.5503,0,1.5309,1.5324,1.5343,1.5364,1.537,1.5379,1.5397,1.5408,1.5425,1.5432,1.5444,1.5452,1.5468,1.5467,1.5489,1.5482,1.5492,1.5499,1.55,1.5502,1.55,1.5507,1.5519,1.5522,1.5506,1.5505,1.5505,0,1.5303,1.5327,1.5342,1.535,1.5375,1.5382,1.5393,1.541,1.542,1.5436,1.5443,1.546,1.547,1.5483,1.5497,1.5494,1.5519,1.5518,1.5527,1.5526,1.553,1.553,1.5545,1.5536,1.5536,1.5536,1.5536,0,1.5305,1.5317,1.534,1.535,1.5364,1.5379,1.5394,1.5405,1.5421,1.5434,1.5445,1.5457,1.5474,1.5489,1.55,1.5519,1.5523,1.553,1.5533,1.5529,1.5528,1.5535,1.5534,1.5536,1.5536,1.5536,1.5536,0,1.5299,1.5315,1.5333,1.5357,1.5364,1.5373,1.5394,1.5405,1.5417,1.5434,1.5439,1.5458,1.5477,1.5493,1.5516,1.5524,1.5544,1.5547,1.5538,1.554,1.5548,1.5547,1.5568,1.5572,1.5559,1.556,1.556,0,1.53,1.5309,1.5335,1.5346,1.5357,1.5373,1.5384,1.5401,1.5413,1.5436,1.5444,1.5464,1.5481,1.5511,1.5528,1.5547,1.5551,1.5557,1.5554,1.5551,1.5553,1.5552,1.5555,1.5557,1.5557,1.5557,1.5557,0,1.53,1.5309,1.5325,1.5346,1.536,1.5376,1.5393,1.5401,1.5421,1.5434,1.5454,1.5468,1.5494,1.5515,1.5537,1.5549,1.5557,1.5559,1.5562,1.5558,1.5553,1.5558,1.554,1.5557,1.5557,1.5557,1.5557,1.5557,1.5298,1.5309,1.533,1.5349,1.5364,1.5381,1.5393,1.5409,1.5426,1.545,1.5459,1.548,1.5502,1.5533,1.5545,1.5564,1.5564,1.5568,1.5569,1.557,1.5571,1.5551,1.5567,1.5567,1.5567,1.5567,1.5567,0,1.53,1.5315,1.5333,1.5358,1.5374,1.5382,1.5402,1.5415,1.5434,1.5453,1.5471,1.5496,1.5517,1.5538,1.556,1.5571,1.5576,1.5577,1.5576,1.5579,1.5568,1.5563,1.5573,1.5573,1.5573,1.5573,1.5573,1.5573,1.5303,1.5322,1.5334,1.5363,1.5378,1.54,1.5411,1.5428,1.5444,1.5472,1.549,1.5504,1.5525,1.555,1.5571,1.5576,1.5585,1.5585,1.5592,1.558,1.558,1.5579,1.5575,1.5586,1.5586,1.5602,1.5602,1.5602]}]]